{"data":{"norad_id":54668,"epoch":"2026-09-18T15:06:50.018112Z","epoch_age_seconds":187365,"freshness":"STALE","line1":"1 54668U 22166AC  26261.62974558  .00000016  00000+0  71338-5 0  9992","line2":"2 54668  87.9276 225.3789 0002067  78.0033 282.1332 13.21826500183788","mean_motion":13.218265,"eccentricity":0.0002067,"inclination_deg":87.9276,"raan_deg":225.3789,"arg_perigee_deg":78.0033,"mean_anomaly_deg":282.1332,"bstar":7.1338e-6,"rev_number":18378,"period_min":108.94016726098,"perigee_km":1176.1896608059,"apogee_km":1179.3132650965,"semimajor_km":7555.8884629512,"source":"CELESTRAK","updated_at":"2026-09-20T09:00:44.746722Z"}}